Flag for U.S.A. Weather past 2 weeks in Jackson, Mississippi, U.S.A.

Now
70 °F

Clear.


Feels Like: 75 °F
Forecast: 63 / 84 °F
Wind: 3 mph from Northeast

Location: Hawkins Field

Current Time: Jul 30, 2014 at 1:47:30 AM

Latest Report: Jul 30, 2014 at 12:53 AM


Visibility: 10 mi

Pressure: 30.06 "Hg

Humidity: 66%

Dew point: 58 °F

Location of JacksonLocation

Historic Weather in Jackson — Graph

°F

Jackson temperature yesterday

Maximum temperature yesterday: 87 °F (at 2:53 PM)
Minimum temperature yesterday: 67 °F (at 5:53 AM)
Average temperature yesterday: 78 °F

Past Weeks' High & Low Weather Summary

 TemperatureHumidityPressure
High93 °F (Jul 26, 1:53 PM)90% (Jul 15, 4:53 AM)30.08 "Hg (Jul 15, 4:53 AM)
Low63 °F (Jul 16, 6:53 AM)40% (Jul 16, 3:53 PM)29.88 "Hg (Jul 15, 4:53 PM)
Average78 °F70%29.99 "Hg
* Reported Jul 14 11:53 PM — Jul 29 11:53 PM, Jackson, Weather by CustomWeather, © 2014

Note: Actual official high and low records may vary slightly from our data, if they occured in-between our weather recording intervals... More about our weather records

Advertising

Jackson weather history for previous 24 hours

 ConditionsComfort  
Time TempWeatherWind HumidityBarometerVisibility
11:53 PM
Jul 29
71 °FClear.No wind63%30.06 "Hg10 mi
10:53 PM73 °FClear.7 mph59%30.06 "Hg10 mi
9:53 PM74 °FClear.3 mph57%30.05 "Hg10 mi
8:53 PM75 °FSunny.5 mph55%30.04 "Hg10 mi
7:53 PM79 °FSunny.No wind47%30.04 "Hg10 mi
6:53 PM83 °FSunny.8 mph46%30.03 "Hg10 mi
5:53 PM85 °FSunny.7 mph46%30.02 "Hg10 mi
4:53 PM85 °FSunny.9 mph45%30.03 "Hg10 mi
3:53 PM86 °FSunny.10 mph46%30.02 "Hg10 mi
2:53 PM87 °FPartly sunny.8 mph46%30.03 "Hg10 mi
1:53 PM86 °FScattered clouds.12 mph45%30.04 "Hg10 mi
12:53 PM86 °FSunny.10 mph45%30.06 "Hg10 mi
11:53 AM85 °FSunny.7 mph46%30.07 "Hg10 mi
10:53 AM84 °FSunny.3 mph49%30.07 "Hg10 mi
9:53 AM82 °FSunny.5 mph53%30.08 "Hg10 mi
8:53 AM78 °FSunny.No wind62%30.07 "Hg10 mi
7:53 AM72 °FSunny.No wind78%30.06 "Hg10 mi
6:53 AM69 °FClear.No wind81%30.06 "Hg10 mi
5:53 AM67 °FClear.6 mph87%30.03 "Hg10 mi
4:53 AM68 °FClear.No wind84%30.01 "Hg10 mi
3:53 AM70 °FClear.No wind79%30.01 "Hg10 mi
2:53 AM72 °FClear.No wind73%29.99 "Hg10 mi
1:53 AM73 °FClear.No wind71%30.01 "Hg10 mi
Weather by CustomWeather, © 2014

See weather overviewHow to use our weather pages